owner,sensor,date,latitude,longitude,vertical_datum,wind_speed,wind_to_direction,wind_speed_of_gust,qcFlag 
DISL,ioos:station:DISL:MHPA:1,2013-04-01T00:00:00Z,30.6671,-87.9365,8.5,4.62,193.0,-9999.0,'1111122,1111122,1111122' 
DISL,ioos:station:DISL:MHPA:1,2013-04-01T00:30:00Z,30.6671,-87.9365,8.5,3.44,193.1,-9999.0,'1111122,1111122,1111122' 
DISL,ioos:station:DISL:MHPA:1,2013-04-01T01:00:00Z,30.6671,-87.9365,8.5,5.38,270.4,-9999.0,'1111122,1111122,1111122' 
DISL,ioos:station:DISL:MHPA:1,2013-04-01T01:30:00Z,30.6671,-87.9365,8.5,3.38,149.6,-9999.0,'1111122,1111122,1111122' 
DISL,ioos:station:DISL:MHPA:1,2013-04-01T02:00:00Z,30.6671,-87.9365,8.5,3.69,155.1,-9999.0,'1111122,1111122,1111122' 
DISL,ioos:station:DISL:MHPA:1,2013-04-01T02:30:00Z,30.6671,-87.9365,8.5,2.36,107.4,-9999.0,'1111122,1111122,1111122' 
DISL,ioos:station:DISL:MHPA:1,2013-04-01T03:00:00Z,30.6671,-87.9365,8.5,2.83,128.4,-9999.0,'1111122,1111122,1111122' 
DISL,ioos:station:DISL:MHPA:1,2013-04-01T03:30:00Z,30.6671,-87.9365,8.5,2.5,169.3,-9999.0,'1111122,1111122,1111122' 
DISL,ioos:station:DISL:MHPA:1,2013-04-01T04:00:00Z,30.6671,-87.9365,8.5,1.98,163.8,-9999.0,'1111122,1111122,1111122' 
DISL,ioos:station:DISL:MHPA:1,2013-04-01T04:30:00Z,30.6671,-87.9365,8.5,1.27,204.1,-9999.0,'1111122,1111122,1111122' 
DISL,ioos:station:DISL:MHPA:1,2013-04-01T05:00:00Z,30.6671,-87.9365,8.5,1.71,270.7,-9999.0,'1111122,1111122,1111122' 
DISL,ioos:station:DISL:MHPA:1,2013-04-01T05:30:00Z,30.6671,-87.9365,8.5,3.73,316.0,-9999.0,'1111122,1111122,1111122' 
DISL,ioos:station:DISL:MHPA:1,2013-04-01T06:00:00Z,30.6671,-87.9365,8.5,1.99,332.6,-9999.0,'1111122,1111122,1111122' 
DISL,ioos:station:DISL:MHPA:1,2013-04-01T06:30:00Z,30.6671,-87.9365,8.5,2.05,317.8,-9999.0,'1111122,1111122,1111122' 
DISL,ioos:station:DISL:MHPA:1,2013-04-01T07:00:00Z,30.6671,-87.9365,8.5,0.53,59.29,-9999.0,'1111122,1111122,1111122' 
DISL,ioos:station:DISL:MHPA:1,2013-04-01T07:30:00Z,30.6671,-87.9365,8.5,0.6,343.8,-9999.0,'1111122,1111122,1111122' 
DISL,ioos:station:DISL:MHPA:1,2013-04-01T08:00:00Z,30.6671,-87.9365,8.5,1.27,126.3,-9999.0,'1111122,1111122,1111122' 
DISL,ioos:station:DISL:MHPA:1,2013-04-01T08:30:00Z,30.6671,-87.9365,8.5,0.87,124.0,-9999.0,'1111122,1111122,1111122' 
DISL,ioos:station:DISL:MHPA:1,2013-04-01T09:00:00Z,30.6671,-87.9365,8.5,0.03,59.03,-9999.0,'1111122,1111122,1111122' 
DISL,ioos:station:DISL:MHPA:1,2013-04-01T09:30:00Z,30.6671,-87.9365,8.5,0.0,0.0,-9999.0,'1114422,1114422,1111122' 
DISL,ioos:station:DISL:MHPA:1,2013-04-01T10:00:00Z,30.6671,-87.9365,8.5,1.1,236.5,-9999.0,'1111122,1111122,1111122' 
DISL,ioos:station:DISL:MHPA:1,2013-04-01T10:30:00Z,30.6671,-87.9365,8.5,2.87,274.9,-9999.0,'1111122,1111122,1111122' 
DISL,ioos:station:DISL:MHPA:1,2013-04-01T11:00:00Z,30.6671,-87.9365,8.5,2.4,263.1,-9999.0,'1111122,1111122,1111122' 
DISL,ioos:station:DISL:MHPA:1,2013-04-01T11:30:00Z,30.6671,-87.9365,8.5,2.39,253.6,-9999.0,'1111122,1111122,1111122' 
DISL,ioos:station:DISL:MHPA:1,2013-04-01T12:00:00Z,30.6671,-87.9365,8.5,2.03,292.9,-9999.0,'1111122,1111122,1111122' 
DISL,ioos:station:DISL:MHPA:1,2013-04-01T12:30:00Z,30.6671,-87.9365,8.5,3.51,318.4,-9999.0,'1111122,1111122,1111122' 
DISL,ioos:station:DISL:MHPA:1,2013-04-01T13:00:00Z,30.6671,-87.9365,8.5,3.62,331.2,-9999.0,'1111122,1111122,1111122' 
DISL,ioos:station:DISL:MHPA:1,2013-04-01T13:30:00Z,30.6671,-87.9365,8.5,3.27,355.8,-9999.0,'1111122,1111122,1111122' 
DISL,ioos:station:DISL:MHPA:1,2013-04-01T14:00:00Z,30.6671,-87.9365,8.5,3.79,341.4,-9999.0,'1111122,1111122,1111122' 
DISL,ioos:station:DISL:MHPA:1,2013-04-01T14:30:00Z,30.6671,-87.9365,8.5,3.39,354.8,-9999.0,'1111122,1111122,1111122' 
DISL,ioos:station:DISL:MHPA:1,2013-04-01T15:00:00Z,30.6671,-87.9365,8.5,3.18,339.9,-9999.0,'1111122,1111122,1111122' 
DISL,ioos:station:DISL:MHPA:1,2013-04-01T15:30:00Z,30.6671,-87.9365,8.5,2.8,5.31,-9999.0,'1111122,1111122,1111122' 
DISL,ioos:station:DISL:MHPA:1,2013-04-01T16:00:00Z,30.6671,-87.9365,8.5,2.71,356.8,-9999.0,'1111122,1111122,1111122' 
DISL,ioos:station:DISL:MHPA:1,2013-04-01T16:30:00Z,30.6671,-87.9365,8.5,2.69,351.7,-9999.0,'1111122,1111122,1111122' 
DISL,ioos:station:DISL:MHPA:1,2013-04-01T17:00:00Z,30.6671,-87.9365,8.5,3.63,350.8,-9999.0,'1111122,1111122,1111122' 
DISL,ioos:station:DISL:MHPA:1,2013-04-01T17:30:00Z,30.6671,-87.9365,8.5,3.6,350.9,-9999.0,'1111122,1111122,1111122' 
DISL,ioos:station:DISL:MHPA:1,2013-04-01T18:00:00Z,30.6671,-87.9365,8.5,2.97,351.9,-9999.0,'1111122,1111122,1111122' 
DISL,ioos:station:DISL:MHPA:1,2013-04-01T18:30:00Z,30.6671,-87.9365,8.5,2.51,7.21,-9999.0,'1111122,1111122,1111122' 
DISL,ioos:station:DISL:MHPA:1,2013-04-01T19:00:00Z,30.6671,-87.9365,8.5,2.58,359.2,-9999.0,'1111122,1111122,1111122' 
DISL,ioos:station:DISL:MHPA:1,2013-04-01T19:30:00Z,30.6671,-87.9365,8.5,3.29,330.6,-9999.0,'1111122,1111122,1111122' 
DISL,ioos:station:DISL:MHPA:1,2013-04-01T20:00:00Z,30.6671,-87.9365,8.5,2.75,352.1,-9999.0,'1111122,1111122,1111122' 
DISL,ioos:station:DISL:MHPA:1,2013-04-01T20:30:00Z,30.6671,-87.9365,8.5,2.35,338.2,-9999.0,'1111122,1111122,1111122' 
DISL,ioos:station:DISL:MHPA:1,2013-04-01T21:00:00Z,30.6671,-87.9365,8.5,2.41,354.1,-9999.0,'1111122,1111122,1111122' 
DISL,ioos:station:DISL:MHPA:1,2013-04-01T21:30:00Z,30.6671,-87.9365,8.5,2.46,332.9,-9999.0,'1111122,1111122,1111122' 
DISL,ioos:station:DISL:MHPA:1,2013-04-01T22:00:00Z,30.6671,-87.9365,8.5,2.36,357.6,-9999.0,'1111122,1111122,1111122' 
DISL,ioos:station:DISL:MHPA:1,2013-04-01T22:30:00Z,30.6671,-87.9365,8.5,2.57,2.024,-9999.0,'1111122,1111122,1111122' 
DISL,ioos:station:DISL:MHPA:1,2013-04-01T23:00:00Z,30.6671,-87.9365,8.5,1.98,12.9,-9999.0,'1111122,1111122,1111122' 
DISL,ioos:station:DISL:MHPA:1,2013-04-01T23:30:00Z,30.6671,-87.9365,8.5,2.25,30.05,-9999.0,'1111122,1111122,1111122' 
DISL,ioos:station:DISL:MHPA:1,2013-04-02T00:00:00Z,30.6671,-87.9365,8.5,1.28,40.93,-9999.0,'1111122,1111122,1111122' 
DISL,ioos:station:DISL:MHPA:1,2013-04-02T00:30:00Z,30.6671,-87.9365,8.5,0.82,42.79,-9999.0,'1111122,1111122,1111122' 
DISL,ioos:station:DISL:MHPA:1,2013-04-02T01:00:00Z,30.6671,-87.9365,8.5,0.89,56.29,-9999.0,'1111122,1111122,1111122' 
DISL,ioos:station:DISL:MHPA:1,2013-04-02T01:30:00Z,30.6671,-87.9365,8.5,1.0,79.6,-9999.0,'1111122,1111122,1111122' 
DISL,ioos:station:DISL:MHPA:1,2013-04-02T02:00:00Z,30.6671,-87.9365,8.5,1.47,73.6,-9999.0,'1111122,1111122,1111122' 
DISL,ioos:station:DISL:MHPA:1,2013-04-02T02:30:00Z,30.6671,-87.9365,8.5,0.17,47.36,-9999.0,'1111122,1111122,1111122' 
DISL,ioos:station:DISL:MHPA:1,2013-04-02T03:00:00Z,30.6671,-87.9365,8.5,0.12,45.31,-9999.0,'1111122,1111122,1111122' 
DISL,ioos:station:DISL:MHPA:1,2013-04-02T03:30:00Z,30.6671,-87.9365,8.5,0.06,36.34,-9999.0,'1111122,1111122,1111122' 
DISL,ioos:station:DISL:MHPA:1,2013-04-02T04:00:00Z,30.6671,-87.9365,8.5,0.91,352.9,-9999.0,'1111122,1111122,1111122' 
DISL,ioos:station:DISL:MHPA:1,2013-04-02T04:30:00Z,30.6671,-87.9365,8.5,1.93,355.4,-9999.0,'1111122,1111122,1111122' 
DISL,ioos:station:DISL:MHPA:1,2013-04-02T05:00:00Z,30.6671,-87.9365,8.5,1.53,15.19,-9999.0,'1111122,1111122,1111122' 
DISL,ioos:station:DISL:MHPA:1,2013-04-02T05:30:00Z,30.6671,-87.9365,8.5,0.23,102.0,-9999.0,'1111122,1111122,1111122' 
DISL,ioos:station:DISL:MHPA:1,2013-04-02T06:00:00Z,30.6671,-87.9365,8.5,0.42,28.49,-9999.0,'1111122,1111122,1111122' 
DISL,ioos:station:DISL:MHPA:1,2013-04-02T06:30:00Z,30.6671,-87.9365,8.5,0.27,101.0,-9999.0,'1111122,1111122,1111122' 
DISL,ioos:station:DISL:MHPA:1,2013-04-02T07:00:00Z,30.6671,-87.9365,8.5,0.0,129.2,-9999.0,'1114422,1111122,1111122' 
DISL,ioos:station:DISL:MHPA:1,2013-04-02T07:30:00Z,30.6671,-87.9365,8.5,0.68,83.7,-9999.0,'1111122,1111122,1111122' 
DISL,ioos:station:DISL:MHPA:1,2013-04-02T08:00:00Z,30.6671,-87.9365,8.5,0.86,105.0,-9999.0,'1111122,1111122,1111122' 
DISL,ioos:station:DISL:MHPA:1,2013-04-02T08:30:00Z,30.6671,-87.9365,8.5,0.62,44.91,-9999.0,'1111122,1111122,1111122' 
DISL,ioos:station:DISL:MHPA:1,2013-04-02T09:00:00Z,30.6671,-87.9365,8.5,0.42,35.16,-9999.0,'1111122,1111122,1111122' 
DISL,ioos:station:DISL:MHPA:1,2013-04-02T09:30:00Z,30.6671,-87.9365,8.5,1.51,35.17,-9999.0,'1111122,1111122,1111122' 
DISL,ioos:station:DISL:MHPA:1,2013-04-02T10:00:00Z,30.6671,-87.9365,8.5,1.93,26.84,-9999.0,'1111122,1111122,1111122' 
DISL,ioos:station:DISL:MHPA:1,2013-04-02T10:30:00Z,30.6671,-87.9365,8.5,1.71,34.72,-9999.0,'1111122,1111122,1111122' 
DISL,ioos:station:DISL:MHPA:1,2013-04-02T11:00:00Z,30.6671,-87.9365,8.5,0.8,45.68,-9999.0,'1111122,1111122,1111122' 
DISL,ioos:station:DISL:MHPA:1,2013-04-02T11:30:00Z,30.6671,-87.9365,8.5,0.68,19.24,-9999.0,'1111122,1111122,1111122' 
DISL,ioos:station:DISL:MHPA:1,2013-04-02T12:00:00Z,30.6671,-87.9365,8.5,1.5,11.33,-9999.0,'1111122,1111122,1111122' 
DISL,ioos:station:DISL:MHPA:1,2013-04-02T12:30:00Z,30.6671,-87.9365,8.5,1.64,15.24,-9999.0,'1111122,1111122,1111122' 
DISL,ioos:station:DISL:MHPA:1,2013-04-02T13:00:00Z,30.6671,-87.9365,8.5,1.87,9.48,-9999.0,'1111122,1111122,1111122' 
DISL,ioos:station:DISL:MHPA:1,2013-04-02T13:30:00Z,30.6671,-87.9365,8.5,1.74,351.7,-9999.0,'1111122,1111122,1111122' 
DISL,ioos:station:DISL:MHPA:1,2013-04-02T14:00:00Z,30.6671,-87.9365,8.5,1.59,356.0,-9999.0,'1111122,1111122,1111122' 
DISL,ioos:station:DISL:MHPA:1,2013-04-02T14:30:00Z,30.6671,-87.9365,8.5,1.47,317.2,-9999.0,'1111122,1111122,1111122' 
DISL,ioos:station:DISL:MHPA:1,2013-04-02T15:00:00Z,30.6671,-87.9365,8.5,1.18,252.2,-9999.0,'1111122,1111122,1111122' 
DISL,ioos:station:DISL:MHPA:1,2013-04-02T15:30:00Z,30.6671,-87.9365,8.5,2.21,234.6,-9999.0,'1111122,1111122,1111122' 
DISL,ioos:station:DISL:MHPA:1,2013-04-02T16:00:00Z,30.6671,-87.9365,8.5,1.68,226.1,-9999.0,'1111122,1111122,1111122' 
DISL,ioos:station:DISL:MHPA:1,2013-04-02T16:30:00Z,30.6671,-87.9365,8.5,2.37,237.5,-9999.0,'1111122,1111122,1111122' 
DISL,ioos:station:DISL:MHPA:1,2013-04-02T17:00:00Z,30.6671,-87.9365,8.5,2.71,227.6,-9999.0,'1111122,1111122,1111122' 
DISL,ioos:station:DISL:MHPA:1,2013-04-02T17:30:00Z,30.6671,-87.9365,8.5,3.89,250.3,-9999.0,'1111122,1111122,1111122' 
DISL,ioos:station:DISL:MHPA:1,2013-04-02T18:00:00Z,30.6671,-87.9365,8.5,4.29,240.8,-9999.0,'1111122,1111122,1111122' 
DISL,ioos:station:DISL:MHPA:1,2013-04-02T18:30:00Z,30.6671,-87.9365,8.5,2.96,230.1,-9999.0,'1111122,1111122,1111122' 
DISL,ioos:station:DISL:MHPA:1,2013-04-02T19:00:00Z,30.6671,-87.9365,8.5,3.69,235.6,-9999.0,'1111122,1111122,1111122' 
DISL,ioos:station:DISL:MHPA:1,2013-04-02T19:30:00Z,30.6671,-87.9365,8.5,5.48,237.5,-9999.0,'1111122,1111122,1111122' 
DISL,ioos:station:DISL:MHPA:1,2013-04-02T20:00:00Z,30.6671,-87.9365,8.5,4.64,219.4,-9999.0,'1111122,1111122,1111122' 
DISL,ioos:station:DISL:MHPA:1,2013-04-02T20:30:00Z,30.6671,-87.9365,8.5,4.34,221.9,-9999.0,'1111122,1111122,1111122' 
DISL,ioos:station:DISL:MHPA:1,2013-04-02T21:00:00Z,30.6671,-87.9365,8.5,4.62,242.3,-9999.0,'1111122,1111122,1111122' 
DISL,ioos:station:DISL:MHPA:1,2013-04-02T21:30:00Z,30.6671,-87.9365,8.5,5.18,243.2,-9999.0,'1111122,1111122,1111122' 
DISL,ioos:station:DISL:MHPA:1,2013-04-02T22:00:00Z,30.6671,-87.9365,8.5,5.0,229.0,-9999.0,'1111122,1111122,1111122' 
DISL,ioos:station:DISL:MHPA:1,2013-04-02T22:30:00Z,30.6671,-87.9365,8.5,4.45,225.8,-9999.0,'1111122,1111122,1111122' 
DISL,ioos:station:DISL:MHPA:1,2013-04-02T23:00:00Z,30.6671,-87.9365,8.5,3.88,225.1,-9999.0,'1111122,1111122,1111122' 
DISL,ioos:station:DISL:MHPA:1,2013-04-02T23:30:00Z,30.6671,-87.9365,8.5,2.78,188.0,-9999.0,'1111122,1111122,1111122' 
DISL,ioos:station:DISL:MHPA:1,2013-04-03T00:00:00Z,30.6671,-87.9365,8.5,3.88,184.3,-9999.0,'1111122,1111122,1111122' 
DISL,ioos:station:DISL:MHPA:1,2013-04-03T00:30:00Z,30.6671,-87.9365,8.5,3.4,177.9,-9999.0,'1111122,1111122,1111122' 
DISL,ioos:station:DISL:MHPA:1,2013-04-03T01:00:00Z,30.6671,-87.9365,8.5,2.23,151.7,-9999.0,'1111122,1111122,1111122' 
DISL,ioos:station:DISL:MHPA:1,2013-04-03T01:30:00Z,30.6671,-87.9365,8.5,1.69,132.8,-9999.0,'1111122,1111122,1111122' 
DISL,ioos:station:DISL:MHPA:1,2013-04-03T02:00:00Z,30.6671,-87.9365,8.5,1.34,144.7,-9999.0,'1111122,1111122,1111122' 
DISL,ioos:station:DISL:MHPA:1,2013-04-03T02:30:00Z,30.6671,-87.9365,8.5,2.02,145.7,-9999.0,'1111122,1111122,1111122' 
DISL,ioos:station:DISL:MHPA:1,2013-04-03T03:00:00Z,30.6671,-87.9365,8.5,1.95,137.1,-9999.0,'1111122,1111122,1111122' 
DISL,ioos:station:DISL:MHPA:1,2013-04-03T03:30:00Z,30.6671,-87.9365,8.5,1.72,106.7,-9999.0,'1111122,1111122,1111122' 
DISL,ioos:station:DISL:MHPA:1,2013-04-03T04:00:00Z,30.6671,-87.9365,8.5,2.61,117.9,-9999.0,'1111122,1111122,1111122' 
DISL,ioos:station:DISL:MHPA:1,2013-04-03T04:30:00Z,30.6671,-87.9365,8.5,1.09,69.25,-9999.0,'1111122,1111122,1111122' 
DISL,ioos:station:DISL:MHPA:1,2013-04-03T05:00:00Z,30.6671,-87.9365,8.5,1.52,101.1,-9999.0,'1111122,1111122,1111122' 
DISL,ioos:station:DISL:MHPA:1,2013-04-03T05:30:00Z,30.6671,-87.9365,8.5,1.05,45.33,-9999.0,'1111122,1111122,1111122' 
DISL,ioos:station:DISL:MHPA:1,2013-04-03T06:00:00Z,30.6671,-87.9365,8.5,1.54,74.3,-9999.0,'1111122,1111122,1111122' 
DISL,ioos:station:DISL:MHPA:1,2013-04-03T06:30:00Z,30.6671,-87.9365,8.5,2.22,104.4,-9999.0,'1111122,1111122,1111122' 
DISL,ioos:station:DISL:MHPA:1,2013-04-03T07:00:00Z,30.6671,-87.9365,8.5,1.41,45.03,-9999.0,'1111122,1111122,1111122' 
DISL,ioos:station:DISL:MHPA:1,2013-04-03T07:30:00Z,30.6671,-87.9365,8.5,2.18,62.26,-9999.0,'1111122,1111122,1111122' 
DISL,ioos:station:DISL:MHPA:1,2013-04-03T08:00:00Z,30.6671,-87.9365,8.5,1.68,52.61,-9999.0,'1111122,1111122,1111122' 
DISL,ioos:station:DISL:MHPA:1,2013-04-03T08:30:00Z,30.6671,-87.9365,8.5,1.76,88.6,-9999.0,'1111122,1111122,1111122' 
DISL,ioos:station:DISL:MHPA:1,2013-04-03T09:00:00Z,30.6671,-87.9365,8.5,2.2,17.48,-9999.0,'1111122,1111122,1111122' 
DISL,ioos:station:DISL:MHPA:1,2013-04-03T09:30:00Z,30.6671,-87.9365,8.5,2.04,24.51,-9999.0,'1111122,1111122,1111122' 
DISL,ioos:station:DISL:MHPA:1,2013-04-03T10:00:00Z,30.6671,-87.9365,8.5,1.66,30.78,-9999.0,'1111122,1111122,1111122' 
DISL,ioos:station:DISL:MHPA:1,2013-04-03T10:30:00Z,30.6671,-87.9365,8.5,1.82,7.05,-9999.0,'1111122,1111122,1111122' 
DISL,ioos:station:DISL:MHPA:1,2013-04-03T11:00:00Z,30.6671,-87.9365,8.5,2.77,353.6,-9999.0,'1111122,1111122,1111122' 
DISL,ioos:station:DISL:MHPA:1,2013-04-03T11:30:00Z,30.6671,-87.9365,8.5,2.64,27.57,-9999.0,'1111122,1111122,1111122' 
DISL,ioos:station:DISL:MHPA:1,2013-04-03T12:00:00Z,30.6671,-87.9365,8.5,2.06,26.31,-9999.0,'1111122,1111122,1111122' 
DISL,ioos:station:DISL:MHPA:1,2013-04-03T12:30:00Z,30.6671,-87.9365,8.5,2.78,37.85,-9999.0,'1111122,1111122,1111122' 
DISL,ioos:station:DISL:MHPA:1,2013-04-03T13:00:00Z,30.6671,-87.9365,8.5,2.6,26.39,-9999.0,'1111122,1111122,1111122' 
DISL,ioos:station:DISL:MHPA:1,2013-04-03T13:30:00Z,30.6671,-87.9365,8.5,3.05,30.97,-9999.0,'1111122,1111122,1111122' 
DISL,ioos:station:DISL:MHPA:1,2013-04-03T14:00:00Z,30.6671,-87.9365,8.5,4.0,43.67,-9999.0,'1111122,1111122,1111122' 
DISL,ioos:station:DISL:MHPA:1,2013-04-03T14:30:00Z,30.6671,-87.9365,8.5,4.21,40.11,-9999.0,'1111122,1111122,1111122' 
DISL,ioos:station:DISL:MHPA:1,2013-04-03T15:00:00Z,30.6671,-87.9365,8.5,3.66,31.93,-9999.0,'1111122,1111122,1111122' 
DISL,ioos:station:DISL:MHPA:1,2013-04-03T15:30:00Z,30.6671,-87.9365,8.5,2.71,19.5,-9999.0,'1111122,1111122,1111122' 
DISL,ioos:station:DISL:MHPA:1,2013-04-03T16:00:00Z,30.6671,-87.9365,8.5,2.55,13.65,-9999.0,'1111122,1111122,1111122' 
DISL,ioos:station:DISL:MHPA:1,2013-04-03T16:30:00Z,30.6671,-87.9365,8.5,2.45,351.1,-9999.0,'1111122,1111122,1111122' 
DISL,ioos:station:DISL:MHPA:1,2013-04-03T17:00:00Z,30.6671,-87.9365,8.5,3.27,32.87,-9999.0,'1111122,1111122,1111122' 
DISL,ioos:station:DISL:MHPA:1,2013-04-03T17:30:00Z,30.6671,-87.9365,8.5,2.51,46.15,-9999.0,'1111122,1111122,1111122' 
DISL,ioos:station:DISL:MHPA:1,2013-04-03T18:00:00Z,30.6671,-87.9365,8.5,3.22,89.3,-9999.0,'1111122,1111122,1111122' 
DISL,ioos:station:DISL:MHPA:1,2013-04-03T18:30:00Z,30.6671,-87.9365,8.5,7.9,110.9,-9999.0,'1111122,1111122,1111122' 
DISL,ioos:station:DISL:MHPA:1,2013-04-03T19:00:00Z,30.6671,-87.9365,8.5,13.54,121.7,-9999.0,'1111122,1111122,1111122' 
DISL,ioos:station:DISL:MHPA:1,2013-04-03T19:30:00Z,30.6671,-87.9365,8.5,7.24,113.2,-9999.0,'1111122,1111122,1111122' 
DISL,ioos:station:DISL:MHPA:1,2013-04-03T20:00:00Z,30.6671,-87.9365,8.5,3.4,82.2,-9999.0,'1111122,1111122,1111122' 
DISL,ioos:station:DISL:MHPA:1,2013-04-03T20:30:00Z,30.6671,-87.9365,8.5,4.03,54.69,-9999.0,'1111122,1111122,1111122' 
DISL,ioos:station:DISL:MHPA:1,2013-04-03T21:00:00Z,30.6671,-87.9365,8.5,2.19,44.44,-9999.0,'1111122,1111122,1111122' 
DISL,ioos:station:DISL:MHPA:1,2013-04-03T21:30:00Z,30.6671,-87.9365,8.5,2.63,29.42,-9999.0,'1111122,1111122,1111122' 
DISL,ioos:station:DISL:MHPA:1,2013-04-03T22:00:00Z,30.6671,-87.9365,8.5,2.09,22.72,-9999.0,'1111122,1111122,1111122' 
DISL,ioos:station:DISL:MHPA:1,2013-04-03T22:30:00Z,30.6671,-87.9365,8.5,3.3,3.765,-9999.0,'1111122,1111122,1111122' 
DISL,ioos:station:DISL:MHPA:1,2013-04-03T23:00:00Z,30.6671,-87.9365,8.5,3.78,11.75,-9999.0,'1111122,1111122,1111122' 
DISL,ioos:station:DISL:MHPA:1,2013-04-03T23:30:00Z,30.6671,-87.9365,8.5,3.29,0.063,-9999.0,'1111122,1111122,1111122' 
DISL,ioos:station:DISL:MHPA:1,2013-04-04T00:00:00Z,30.6671,-87.9365,8.5,4.28,359.5,-9999.0,'1111122,1111122,1111122' 
DISL,ioos:station:DISL:MHPA:1,2013-04-04T00:30:00Z,30.6671,-87.9365,8.5,4.8,5.453,-9999.0,'1111122,1111122,1111122' 
DISL,ioos:station:DISL:MHPA:1,2013-04-04T01:00:00Z,30.6671,-87.9365,8.5,4.27,7.21,-9999.0,'1111122,1111122,1111122' 
DISL,ioos:station:DISL:MHPA:1,2013-04-04T01:30:00Z,30.6671,-87.9365,8.5,3.85,8.57,-9999.0,'1111122,1111122,1111122' 
DISL,ioos:station:DISL:MHPA:1,2013-04-04T02:00:00Z,30.6671,-87.9365,8.5,3.46,358.9,-9999.0,'1111122,1111122,1111122' 
DISL,ioos:station:DISL:MHPA:1,2013-04-04T02:30:00Z,30.6671,-87.9365,8.5,3.4,5.307,-9999.0,'1111122,1111122,1111122' 
DISL,ioos:station:DISL:MHPA:1,2013-04-04T03:00:00Z,30.6671,-87.9365,8.5,2.93,6.795,-9999.0,'1111122,1111122,1111122' 
DISL,ioos:station:DISL:MHPA:1,2013-04-04T03:30:00Z,30.6671,-87.9365,8.5,2.26,8.04,-9999.0,'1111122,1111122,1111122' 
DISL,ioos:station:DISL:MHPA:1,2013-04-04T04:00:00Z,30.6671,-87.9365,8.5,1.76,8.11,-9999.0,'1111122,1111122,1111122' 
DISL,ioos:station:DISL:MHPA:1,2013-04-04T04:30:00Z,30.6671,-87.9365,8.5,1.56,358.8,-9999.0,'1111122,1111122,1111122' 
DISL,ioos:station:DISL:MHPA:1,2013-04-04T05:00:00Z,30.6671,-87.9365,8.5,1.62,344.8,-9999.0,'1111122,1111122,1111122' 
DISL,ioos:station:DISL:MHPA:1,2013-04-04T05:30:00Z,30.6671,-87.9365,8.5,3.0,355.1,-9999.0,'1111122,1111122,1111122' 
DISL,ioos:station:DISL:MHPA:1,2013-04-04T06:00:00Z,30.6671,-87.9365,8.5,2.79,358.4,-9999.0,'1111122,1111122,1111122' 
DISL,ioos:station:DISL:MHPA:1,2013-04-04T06:30:00Z,30.6671,-87.9365,8.5,3.34,6.959,-9999.0,'1111122,1111122,1111122' 
DISL,ioos:station:DISL:MHPA:1,2013-04-04T07:00:00Z,30.6671,-87.9365,8.5,3.06,1.934,-9999.0,'1111122,1111122,1111122' 
DISL,ioos:station:DISL:MHPA:1,2013-04-04T07:30:00Z,30.6671,-87.9365,8.5,2.56,6.705,-9999.0,'1111122,1111122,1111122' 
DISL,ioos:station:DISL:MHPA:1,2013-04-04T08:00:00Z,30.6671,-87.9365,8.5,2.37,10.69,-9999.0,'1111122,1111122,1111122' 
DISL,ioos:station:DISL:MHPA:1,2013-04-04T08:30:00Z,30.6671,-87.9365,8.5,1.98,7.39,-9999.0,'1111122,1111122,1111122' 
DISL,ioos:station:DISL:MHPA:1,2013-04-04T09:00:00Z,30.6671,-87.9365,8.5,1.73,355.6,-9999.0,'1111122,1111122,1111122' 
DISL,ioos:station:DISL:MHPA:1,2013-04-04T09:30:00Z,30.6671,-87.9365,8.5,1.56,11.71,-9999.0,'1111122,1111122,1111122' 
DISL,ioos:station:DISL:MHPA:1,2013-04-04T10:00:00Z,30.6671,-87.9365,8.5,2.38,355.9,-9999.0,'1111122,1111122,1111122' 
DISL,ioos:station:DISL:MHPA:1,2013-04-04T10:30:00Z,30.6671,-87.9365,8.5,1.85,12.99,-9999.0,'1111122,1111122,1111122' 
DISL,ioos:station:DISL:MHPA:1,2013-04-04T11:00:00Z,30.6671,-87.9365,8.5,1.79,12.81,-9999.0,'1111122,1111122,1111122' 
DISL,ioos:station:DISL:MHPA:1,2013-04-04T11:30:00Z,30.6671,-87.9365,8.5,1.86,340.2,-9999.0,'1111122,1111122,1111122' 
DISL,ioos:station:DISL:MHPA:1,2013-04-04T12:00:00Z,30.6671,-87.9365,8.5,2.39,320.3,-9999.0,'1111122,1111122,1111122' 
DISL,ioos:station:DISL:MHPA:1,2013-04-04T12:30:00Z,30.6671,-87.9365,8.5,2.17,326.1,-9999.0,'1111122,1111122,1111122' 
DISL,ioos:station:DISL:MHPA:1,2013-04-04T13:00:00Z,30.6671,-87.9365,8.5,2.2,342.5,-9999.0,'1111122,1111122,1111122' 
DISL,ioos:station:DISL:MHPA:1,2013-04-04T13:30:00Z,30.6671,-87.9365,8.5,2.57,334.7,-9999.0,'1111122,1111122,1111122' 
DISL,ioos:station:DISL:MHPA:1,2013-04-04T14:00:00Z,30.6671,-87.9365,8.5,2.42,335.9,-9999.0,'1111122,1111122,1111122' 
DISL,ioos:station:DISL:MHPA:1,2013-04-04T14:30:00Z,30.6671,-87.9365,8.5,2.33,320.9,-9999.0,'1111122,1111122,1111122' 
DISL,ioos:station:DISL:MHPA:1,2013-04-04T15:00:00Z,30.6671,-87.9365,8.5,2.34,336.7,-9999.0,'1111122,1111122,1111122' 
DISL,ioos:station:DISL:MHPA:1,2013-04-04T15:30:00Z,30.6671,-87.9365,8.5,1.99,6.699,-9999.0,'1111122,1111122,1111122' 
DISL,ioos:station:DISL:MHPA:1,2013-04-04T16:00:00Z,30.6671,-87.9365,8.5,0.75,306.2,-9999.0,'1111122,1111122,1111122' 
DISL,ioos:station:DISL:MHPA:1,2013-04-04T16:30:00Z,30.6671,-87.9365,8.5,0.72,193.3,-9999.0,'1111122,1111122,1111122' 
DISL,ioos:station:DISL:MHPA:1,2013-04-04T17:00:00Z,30.6671,-87.9365,8.5,1.02,240.5,-9999.0,'1111122,1111122,1111122' 
DISL,ioos:station:DISL:MHPA:1,2013-04-04T17:30:00Z,30.6671,-87.9365,8.5,0.88,207.0,-9999.0,'1111122,1111122,1111122' 
DISL,ioos:station:DISL:MHPA:1,2013-04-04T18:00:00Z,30.6671,-87.9365,8.5,1.75,188.5,-9999.0,'1111122,1111122,1111122' 
DISL,ioos:station:DISL:MHPA:1,2013-04-04T18:30:00Z,30.6671,-87.9365,8.5,1.5,184.6,-9999.0,'1111122,1111122,1111122' 
DISL,ioos:station:DISL:MHPA:1,2013-04-04T19:00:00Z,30.6671,-87.9365,8.5,2.52,177.4,-9999.0,'1111122,1111122,1111122' 
DISL,ioos:station:DISL:MHPA:1,2013-04-04T19:30:00Z,30.6671,-87.9365,8.5,3.45,180.0,-9999.0,'1111122,1111122,1111122' 
DISL,ioos:station:DISL:MHPA:1,2013-04-04T20:00:00Z,30.6671,-87.9365,8.5,4.7,172.5,-9999.0,'1111122,1111122,1111122' 
DISL,ioos:station:DISL:MHPA:1,2013-04-04T20:30:00Z,30.6671,-87.9365,8.5,4.0,173.4,-9999.0,'1111122,1111122,1111122' 
DISL,ioos:station:DISL:MHPA:1,2013-04-04T21:00:00Z,30.6671,-87.9365,8.5,5.57,176.0,-9999.0,'1111122,1111122,1111122' 
DISL,ioos:station:DISL:MHPA:1,2013-04-04T21:30:00Z,30.6671,-87.9365,8.5,5.08,177.5,-9999.0,'1111122,1111122,1111122' 
DISL,ioos:station:DISL:MHPA:1,2013-04-04T22:00:00Z,30.6671,-87.9365,8.5,4.24,184.1,-9999.0,'1111122,1111122,1111122' 
DISL,ioos:station:DISL:MHPA:1,2013-04-04T22:30:00Z,30.6671,-87.9365,8.5,3.61,170.9,-9999.0,'1111122,1111122,1111122' 
DISL,ioos:station:DISL:MHPA:1,2013-04-04T23:00:00Z,30.6671,-87.9365,8.5,3.66,327.9,-9999.0,'1111122,1111122,1111122' 
DISL,ioos:station:DISL:MHPA:1,2013-04-04T23:30:00Z,30.6671,-87.9365,8.5,3.69,335.9,-9999.0,'1111122,1111122,1111122' 
DISL,ioos:station:DISL:MHPA:1,2013-04-05T00:00:00Z,30.6671,-87.9365,8.5,3.86,331.7,-9999.0,'1111122,1111122,1111122' 
DISL,ioos:station:DISL:MHPA:1,2013-04-05T00:30:00Z,30.6671,-87.9365,8.5,5.0,324.3,-9999.0,'1111122,1111122,1111122' 
DISL,ioos:station:DISL:MHPA:1,2013-04-05T01:00:00Z,30.6671,-87.9365,8.5,5.35,316.5,-9999.0,'1111122,1111122,1111122' 
DISL,ioos:station:DISL:MHPA:1,2013-04-05T01:30:00Z,30.6671,-87.9365,8.5,5.57,321.0,-9999.0,'1111122,1111122,1111122' 
DISL,ioos:station:DISL:MHPA:1,2013-04-05T02:00:00Z,30.6671,-87.9365,8.5,5.03,322.6,-9999.0,'1111122,1111122,1111122' 
DISL,ioos:station:DISL:MHPA:1,2013-04-05T02:30:00Z,30.6671,-87.9365,8.5,5.91,323.5,-9999.0,'1111122,1111122,1111122' 
DISL,ioos:station:DISL:MHPA:1,2013-04-05T03:00:00Z,30.6671,-87.9365,8.5,5.54,316.9,-9999.0,'1111122,1111122,1111122' 
DISL,ioos:station:DISL:MHPA:1,2013-04-05T03:30:00Z,30.6671,-87.9365,8.5,4.49,328.3,-9999.0,'1111122,1111122,1111122' 
DISL,ioos:station:DISL:MHPA:1,2013-04-05T04:00:00Z,30.6671,-87.9365,8.5,5.23,331.0,-9999.0,'1111122,1111122,1111122' 
DISL,ioos:station:DISL:MHPA:1,2013-04-05T04:30:00Z,30.6671,-87.9365,8.5,5.74,313.5,-9999.0,'1111122,1111122,1111122' 